Regional Weather Roundup
Issued by NWS

Home | Current Version | Previous Version | Graphics & Text | Print | Product List | Glossary On
Versions: 1 2 3 4 5 6 7 8 9 10 11 12 13 14 15 16 17 18 19 20 21 22 23 24 25 26 27 28 29 30 31 32 33 34 35 36 37 38 39 40 41 42 43 44 45 46 47 48 49 50
995
ASUS43 KIND 242359
RWRIN

WEATHER ROUNDUP FOR INDIANA
NATIONAL WEATHER SERVICE INDIANAPOLIS IN
700 PM EST FRI NOV 24 2017

NOTE: "FAIR" INDICATES FEW OR NO CLOUDS BELOW 12,000 FEET WITH NO
SIGNIFICANT WEATHER AND/OR OBSTRUCTIONS TO VISIBILITY.

* - STATION DOES NOT REPORT WEATHER SUCH AS PRECIPITATION OR FOG.

+ - STATION NOT QUALITY CONTROLLED BY THE NATIONAL WEATHER SERVICE.
    USE DATA WITH CAUTION...ESPECIALLY DEWPOINT AND RELATIVE
    HUMIDITY OBSERVATIONS.

INZ001>003-010>013-019-020-250100-
NORTHWEST INDIANA

CITY           SKY/WX    TMP DP  RH WIND       PRES   REMARKS
GARY /AIRPORT/ PTCLDY    55  36  47 S14G25    29.51S
KNOX *+        CLEAR     52  36  54 S20G26    29.55S
MICHIGAN CITY+ CLEAR     52  34  50 S16G26    29.52S
MONTICELLO +   CLEAR     53  33  46 S13G22    29.59S
6HR MIN TEMP:  53; 6HR MAX TEMP:  58;

RENSSELAER +   CLEAR     50  30  46 S16       29.56F

$$

LMZ046-743>745-250100-
SOUTHERN LAKE MICHIGAN

STATION/POSITION TIME  TEMP    WIND        PRES    WAVE
                       AIR SEA DIR/SP/G            HT
                 (UTC) (F)     (DEG/KT/KT) (MB)    (FT)
BURNS HARBOR     2340   54     190/ 22/ 30  999.7R
MICHIGAN CITY    2330   54     170/ 20/ 25   N/A

$$

INZ004-005-014>016-021>024-250100-
NORTH CENTRAL INDIANA

CITY           SKY/WX    TMP DP  RH WIND       PRES   REMARKS
ELKHART        CLEAR     52  36  54 S12       29.54F
GOSHEN         CLEAR     52  32  46 S20G29    29.56F
6HR MIN TEMP:  52; 6HR MAX TEMP:  56;

PERU/GRISSOM   CLEAR     52  34  51 S18G24    29.60F
6HR MIN TEMP:  51; 6HR MAX TEMP:  56;

SOUTH BEND     CLEAR     52  37  56 S17       29.54F
6HR MIN TEMP:  52; 6HR MAX TEMP:  57;

WARSAW +       CLEAR     50  34  53 S10G21    29.58F

$$

INZ006>009-017-018-025>027-250100-
NORTHEAST INDIANA

CITY           SKY/WX    TMP DP  RH WIND       PRES   REMARKS
AUBURN +       PTCLDY    52  32  46 S8G16     29.62F
FORT WAYNE     CLOUDY    51  34  52 S18       29.64F
6HR MIN TEMP:  50; 6HR MAX TEMP:  57;


$$

INZ028-029-035-036-043>045-051>053-250100-
WEST CENTRAL INDIANA

CITY           SKY/WX    TMP DP  RH WIND       PRES   REMARKS
CRAWFORDSVL +  CLEAR     48  34  56 S15G21    29.63F
6HR MIN TEMP:  48; 6HR MAX TEMP:  55;

GREENCASTLE +  CLEAR     52  32  46 S12       29.69F
LAFAYETTE      CLEAR     52  35  52 SW10G21   29.62F
6HR MIN TEMP:  51; 6HR MAX TEMP:  58;

TERRE HAUTE    CLEAR     51  32  48 S14       29.68F
6HR MIN TEMP:  51; 6HR MAX TEMP:  58;


$$

INZ030>032-037>040-046>048-054>057-064-065-250100-
CENTRAL INDIANA

CITY           SKY/WX    TMP DP  RH WIND       PRES   REMARKS
COLUMBUS       CLEAR     48  25  40 S10       29.77S
INDIANAPOLIS   PTCLDY    52  31  44 S15       29.70F
6HR MIN TEMP:  51; 6HR MAX TEMP:  59;

-EAGLE CREEK   CLEAR     53  30  41 S10       29.68F
6HR MIN TEMP:  52; 6HR MAX TEMP:  60;

KOKOMO +       CLEAR     51  34  52 S16       29.64F
6HR MIN TEMP:  50; 6HR MAX TEMP:  57;

MT COMFORT *+  CLEAR     48  36  61 S12G18    29.71F
SHELBYVILLE    CLEAR     51  29  42 S13       29.73F
6HR MIN TEMP:  51; 6HR MAX TEMP:  58;


$$

INZ033-034-041-042-049-050-058-059-250100-
EAST CENTRAL INDIANA

CITY           SKY/WX    TMP DP  RH WIND       PRES   REMARKS
MUNCIE         CLEAR     51  30  44 S16G25    29.68F
6HR MIN TEMP:  51; 6HR MAX TEMP:  58;

RICHMOND +     CLEAR     41  32  70 S10       29.77S

$$

INZ060-061-067>069-081>083-085>088-250100-
SOUTHWEST INDIANA

CITY           SKY/WX    TMP DP  RH WIND       PRES   REMARKS
EVANSVILLE     CLEAR     54  33  45 S9        29.78F
6HR MIN TEMP:  54; 6HR MAX TEMP:  61;

HUNTINGBURG +  CLEAR     52  31  44 S8        29.79F
6HR MIN TEMP:  52; 6HR MAX TEMP:  58;


$$

INZ062-063-066-070>080-084-089>092-250100-
SOUTH CENTRAL AND SOUTHEAST INDIANA

CITY           SKY/WX    TMP DP  RH WIND       PRES   REMARKS
BLOOMINGTON    CLEAR     51  29  42 S10       29.74F
6HR MIN TEMP:  51; 6HR MAX TEMP:  59;

MADISON *+     CLEAR     48  27  43 S3        29.83R
SEYMOUR +      CLEAR     50  30  46 S9        29.78F

$$





USA.gov is the U.S. government's official web portal to all federal, state and local government web resources and services.